COSMOS 2507             
1 40920U 15050A   19261.70817364 -.00000010  00000-0 -14186-3 0  9997
2 40920  82.4960 173.2759 0009411 325.8333  34.2149 12.42869722180850
COSMOS 2508             
1 40921U 15050B   19262.13788282  .00000008  00000-0 -14097-4 0  9990
2 40921  82.4904 172.4679 0014695 356.6213   3.4763 12.42891051180894
COSMOS 2509             
1 40922U 15050C   19262.16624053 -.00000004  00000-0 -97879-4 0  9995
2 40922  82.4905 172.5128 0016650   9.3930 350.7461 12.42875176180902
BREEZE-KM R/B           
1 40923U 15050D   19262.12161255  .00000002  00000-0 -42040-4 0  9999
2 40923  82.4847 106.9323 0203673 103.1658 259.2255 12.80405066186346